Regional Weather Roundup
Issued by NWS Goodland, KS

Home | Current Version | Previous Version | Graphics & Text | Print | Product List | Glossary On
Versions: 1 2 3 4 5 6 7 8 9 10 11 12 13 14 15 16 17 18 19 20 21 22 23 24 25 26 27 28 29 30 31 32 33 34 35 36 37 38 39 40 41 42 43 44 45 46 47 48 49 50
000
ASUS43 KGLD 310459
RWRGLD

GOODLAND FORECAST AREA HOURLY WEATHER ROUNDUP
NATIONAL WEATHER SERVICE GOODLAND KS
1100 PM MDT SUN AUG 30 2015

...OFFICIAL OBSERVATIONS...

CITY           SKY/WX    TMP DP  RH WIND       PRES   REMARKS
GOODLAND KS    CLEAR     65  46  50 S12       29.98S
HILL CITY KS   CLEAR     70  59  68 SE6       29.95F
IMPERIAL NEB   CLEAR     73  40  30 S14       29.93S
MCCOOK NEB     CLEAR     68  50  52 SE8       29.93F
AKRON CO       CLEAR     73  48  41 S17       29.97F
BURLINGTON CO  CLEAR     66  44  45 S13       30.01S
LIMON CO       CLEAR     64  48  56 SE8       30.05S
$$

...UNOFFICIAL OBSERVATIONS...

CITY           SKY/WX    TMP DP  RH WIND       PRES   REMARKS
COLBY KS       CLEAR     66  52  59 SE9       29.98S
GOVE KS          N/A     65  32  29 MISG        N/A
LENORA KS        N/A     64  32  30 MISG        N/A
NORTON KS      CLEAR     64  55  72 SE7       29.95S
SHARON SPRINGS   N/A     66  50  57 SE12        N/A
TRENTON NEB      N/A     72  32  23 SE13        N/A
KIT CARSON CO    N/A     72  44  36 MISG        N/A
YUMA CO          N/A     72  47  41 SE6G13      N/A
$$



USA.gov is the U.S. government's official web portal to all federal, state and local government web resources and services.